Torna al catalogo

CZ-4C DEB

AttivoPO
NORAD 38294·DEBRIS·🇨🇳 China

Lanciato Nov 4, 2010 da Taiyuan Satellite Launch Center

Loading…

Prossimi Passaggi (prossime 24 ore)

TLE

AggiornatoSource: Space-Track

Epoca: Sep 14, 2026, 07:45 UTC

1 38294U 10059D   26257.32306078  .00000255  00000-0  24694-3 0  9992
2 38294  98.6356  99.5628 0259251 261.1216  96.0505 13.73912298781306

Traccia CZ-4C DEB in tempo reale con AllMySat

Download on the App Store